Flag for Italy Weather past 2 weeks in Venice, Italy

Now
46 °F

Sunny.


Feels Like: 44 °F
Forecast: 42 / 53 °F
Wind: 6 mph from Northeast

Location: Venice / Tessera

Current Time: Mar 4, 2015 at 9:42:05 AM

Latest Report: Mar 4, 2015 at 8:50 AM


Visibility: 10 mi

Pressure: 30.15 "Hg

Humidity: 62%

Dew point: 34 °F

Location of VeniceLocation

Historic Weather in Venice — Graph

°F

Venice temperature yesterday

Maximum temperature yesterday: 57 °F (at 12:50 PM)
Minimum temperature yesterday: 36 °F (at 6:20 AM)
Average temperature yesterday: 46 °F

Past Weeks' High & Low Weather Summary

 TemperatureHumidityPressure
High57 °F (Feb 25, 1:50 PM)100% (Feb 20, 7:50 AM)30.63 "Hg (Feb 20, 7:50 AM)
Low27 °F (Feb 20, 7:50 AM)29% (Feb 25, 1:50 PM)29.53 "Hg (Feb 22, 4:50 AM)
Average46 °F75%30.00 "Hg
* Reported Feb 17 8:20 AM — Mar 4 8:20 AM, Venice, Weather by CustomWeather, © 2015

Note: Actual official high and low records may vary slightly from our data, if they occured in-between our weather recording intervals... More about our weather records

Advertising

Venice weather history for previous 24 hours

 ConditionsComfort  
Time TempWeatherWind HumidityBarometerVisibility
8:20 AM
Wed, Mar 4
45 °FPassing clouds.7 mph66%30.15 "HgN/A
7:50 AM43 °FPassing clouds.8 mph71%30.15 "HgN/A
7:20 AM41 °FPassing clouds.9 mph76%30.15 "HgN/A
6:50 AM41 °FPartly sunny.6 mph76%30.15 "HgN/A
6:20 AM43 °FPassing clouds.8 mph76%30.15 "HgN/A
5:50 AM43 °FPassing clouds.7 mph76%30.15 "HgN/A
5:20 AM43 °FPassing clouds.7 mph71%30.15 "HgN/A
4:50 AM43 °FClear.7 mph71%30.15 "Hg10 mi
4:20 AM43 °FClear.7 mph76%30.18 "Hg10 mi
3:50 AM43 °FClear.8 mph76%30.18 "Hg10 mi
3:20 AM43 °FClear.6 mph76%30.18 "Hg10 mi
2:20 AM45 °FClear.7 mph71%30.18 "Hg10 mi
1:50 AM46 °FClear.7 mph66%30.18 "Hg10 mi
1:20 AM46 °FClear.7 mph71%30.21 "Hg10 mi
12:50 AM46 °FClear.7 mph71%30.21 "Hg10 mi
12:20 AM45 °FPassing clouds.7 mph81%30.21 "HgN/A
11:20 PM
Tue, Mar 3
43 °FClear.5 mph81%30.21 "Hg10 mi
10:50 PM45 °FClear.3 mph81%30.21 "Hg10 mi
9:50 PM45 °FClear.5 mph76%30.21 "Hg10 mi
9:20 PM45 °FPassing clouds.3 mph81%30.21 "HgN/A
8:20 PM48 °FClear.3 mph76%30.21 "Hg10 mi
7:50 PM52 °FClear.5 mph62%30.21 "Hg10 mi
7:20 PM52 °FClear.6 mph58%30.21 "Hg10 mi
6:50 PM52 °FClear.5 mph62%30.21 "Hg10 mi
6:20 PM54 °FClear.6 mph58%30.18 "Hg10 mi
5:50 PM54 °FSunny.6 mph58%30.18 "Hg10 mi
5:20 PM57 °FSunny.5 mph44%30.18 "Hg10 mi
4:50 PM55 °FSunny.5 mph55%30.18 "Hg10 mi
3:20 PM57 °FPassing clouds.6 mph48%30.18 "HgN/A
2:50 PM57 °FPassing clouds.6 mph51%30.18 "HgN/A
1:50 PM55 °FPassing clouds.6 mph59%30.18 "HgN/A
1:20 PM57 °FSunny.6 mph55%30.18 "Hg10 mi
12:50 PM57 °FPassing clouds.6 mph59%30.18 "HgN/A
12:20 PM55 °FSunny.7 mph59%30.21 "Hg10 mi
11:50 AM54 °FSunny.9 mph63%30.18 "Hg10 mi
11:20 AM52 °FSunny.10 mph67%30.18 "Hg10 mi
10:50 AM52 °FSunny.12 mph72%30.18 "Hg10 mi
10:20 AM50 °FSunny.9 mph71%30.18 "Hg10 mi
9:50 AM46 °FSunny.7 mph82%30.15 "Hg10 mi
9:20 AM45 °FSunny.7 mph81%30.15 "Hg10 mi
Weather by CustomWeather, © 2015

See weather overviewHow to use our weather pages